2025-274J

Last updated on Wed Dec 31 2025 00:02:07 GMT+0000 (Coordinated Universal Time)

1 66658U 25274J 25364.23854648 .00007157 00000+0 69668-3 0 9998 2 66658 97.7404 291.1547 0011704 212.9982 147.0508 14.92772541 5012
UTC large
Height (km)
Speed (km/s)
/
Latitude / Longitude
Inclination (degrees)
Orbital Period (minutes)
Azimuth
Elevation
Range (km)
Doppler Factor

Next 0 passes for location: London (51.5072 / 0.1276)

Sorry there are no passes over London.